Weather History for Miami, FL

Change the Weather History Date:

Sunday, August 18, 2013

  Actual Average Record
Temperature  
Mean Temperature 85 °F 84 °F  
Max Temperature 91 °F 91 °F 95 °F (1995)
Min Temperature 79 °F 77 °F 67 °F (1938)
Degree Days  
Heating Degree Days 0 0  
Month to date heating degree days 0 0  
Since 1 June heating degree days 0 0  
Since 1 July heating degree days 0 0  
Cooling Degree Days 20 19  
Month to date cooling degree days 353 350  
Year to date cooling degree days 2897 2830  
Since 1 June cooling degree days 1452 1474  
Growing Degree Days 34 (Base 50)    
Moisture  
Dew Point 75 °F    
Average Humidity 73    
Maximum Humidity 85    
Minimum Humidity 60    
Precipitation  
Precipitation 0.20 in 0.29 in 3.72 in (1933)
Month to date precipitation 2.25 4.90  
Year to date precipitation 40.50 36.42  
Snow  
Snow 0.00 in - - ()
Month to date snowfall 0.0  
Since 1 June snowfall 0.0  
Since 1 July snowfall 0.0  
Snow Depth 0.00 in    
Sea Level Pressure  
Sea Level Pressure 30.05 in    
Wind  
Wind Speed 13 mph (ESE)    
Max Wind Speed 25 mph    
Max Gust Speed 29 mph    
Visibility 10 miles    
Events      
T = Trace of Precipitation, MM = Missing Value Source: NWS Daily Summary

Daily Weather History Graph

Daily Weather History Graph

Search for Another Location

Airport:

Trip Planner

Search our weather history database for the weather conditions in past years. The results will help you decide how hot, cold, wet, or windy it might be!

Date:

Astronomy

Aug. 18, 2013 Rise Set
Actual Time 6:55 AM EDT 7:53 PM EDT
Civil Twilight 6:31 AM EDT 8:17 PM EDT
Nautical Twilight 6:03 AM EDT 8:46 PM EDT
Astronomical Twilight 5:34 AM EDT 9:14 PM EDT
Moon 5:53 PM EDT 4:11 AM EDT
Length of Visible Light 13h 46m
Length of Day
12h 58m
Waxing Gibbous, 92% of the Moon is Illuminated
Aug 18
Waxing Gibbous
Aug 20
Full
Aug 28
Last Quarter
Sep 5
New
Sep 12
First Quarter

Hourly Weather History & Observations

Time (EDT) Temp. Heat Index Dew Point Humidity Pressure Visibility Wind Dir Wind Speed Gust Speed Precip Events Conditions
12:53 AM 84.0 °F 91.9 °F 75.0 °F 74% 30.07 in 10.0 mi East 11.5 mph - N/A   Scattered Clouds
1:53 AM 82.9 °F 90.2 °F 75.0 °F 77% 30.06 in 10.0 mi East 10.4 mph - N/A   Scattered Clouds
2:53 AM 82.9 °F 89.4 °F 73.9 °F 74% 30.04 in 10.0 mi ESE 6.9 mph - N/A   Scattered Clouds
3:53 AM 82.0 °F 87.9 °F 73.9 °F 76% 30.02 in 10.0 mi East 5.8 mph - N/A   Partly Cloudy
4:53 AM 82.9 °F 88.0 °F 72.0 °F 69% 30.02 in 10.0 mi East 9.2 mph - N/A   Scattered Clouds
5:53 AM 82.9 °F 89.4 °F 73.9 °F 74% 30.02 in 10.0 mi East 10.4 mph - N/A   Scattered Clouds
6:53 AM 82.0 °F 87.9 °F 73.9 °F 76% 30.02 in 10.0 mi East 13.8 mph - N/A   Scattered Clouds
7:53 AM 84.9 °F 93.3 °F 75.0 °F 72% 30.04 in 10.0 mi East 15.0 mph - N/A   Scattered Clouds
8:53 AM 84.9 °F 93.3 °F 75.0 °F 72% 30.06 in 10.0 mi East 13.8 mph - N/A   Scattered Clouds
9:53 AM 87.1 °F 95.4 °F 73.9 °F 65% 30.07 in 10.0 mi East 16.1 mph - N/A   Mostly Cloudy
10:53 AM 86.0 °F 95.1 °F 75.0 °F 70% 30.09 in 10.0 mi East 21.9 mph 27.6 mph N/A   Mostly Cloudy
11:53 AM 88.0 °F 101.3 °F 78.1 °F 72% 30.08 in 10.0 mi ESE 15.0 mph - 0.14 in   Mostly Cloudy
12:53 PM 90.0 °F 101.3 °F 75.9 °F 63% 30.07 in 10.0 mi ESE 16.1 mph - N/A   Mostly Cloudy
1:53 PM 91.0 °F 101.6 °F 75.0 °F 59% 30.06 in 10.0 mi ESE 20.7 mph 25.3 mph N/A   Mostly Cloudy
2:53 PM 89.1 °F 100.2 °F 75.9 °F 65% 30.04 in 10.0 mi ESE 13.8 mph 21.9 mph N/A   Mostly Cloudy
3:50 PM 89.6 °F 99.8 °F 75.2 °F 62% 30.02 in 10.0 mi ESE 16.1 mph - N/A   Mostly Cloudy
3:53 PM 89.1 °F 99.1 °F 75.0 °F 63% 30.02 in 10.0 mi East 16.1 mph - N/A   Mostly Cloudy
4:45 PM 84.2 °F 92.3 °F 75.2 °F 74% 30.01 in 10.0 mi ESE 13.8 mph 21.9 mph 0.06 in   Scattered Clouds
4:53 PM 84.9 °F 94.1 °F 75.9 °F 74% 30.01 in 10.0 mi ESE 13.8 mph - 0.06 in   Scattered Clouds
5:53 PM 88.0 °F 97.5 °F 75.0 °F 65% 30.00 in 10.0 mi East 18.4 mph 24.2 mph N/A   Scattered Clouds
6:53 PM 86.0 °F 95.1 °F 75.0 °F 70% 30.01 in 10.0 mi ESE 12.7 mph - N/A   Mostly Cloudy
7:53 PM 84.9 °F 93.3 °F 75.0 °F 72% 30.02 in 10.0 mi East 11.5 mph - N/A   Scattered Clouds
8:53 PM 84.9 °F 94.1 °F 75.9 °F 74% 30.04 in 10.0 mi East 11.5 mph - N/A   Scattered Clouds
9:13 PM 82.4 °F 89.5 °F 75.2 °F 79% 30.05 in 10.0 mi SE 8.1 mph 19.6 mph N/A   Mostly Cloudy
9:53 PM 82.0 °F 87.9 °F 73.9 °F 76% 30.08 in 10.0 mi SE 9.2 mph - N/A   Mostly Cloudy
10:48 PM 78.8 °F - 73.4 °F 83% 30.09 in 10.0 mi SE 10.4 mph - N/A   Mostly Cloudy
10:53 PM 79.0 °F - 73.0 °F 82% 30.09 in 10.0 mi SE 8.1 mph - N/A   Mostly Cloudy
11:53 PM 80.1 °F 84.2 °F 73.0 °F 79% 30.09 in 10.0 mi East 4.6 mph - 0.00 in   Mostly Cloudy